[keps] orb10147.2l.amsat

Ray Hoad ray.hoad at mypbmail.com
Thu May 27 19:52:55 PDT 2010


SB KEPS @ AMSAT  $ORB10147.N
2Line Orbital Elements 10147.AMSAT

HR AMSAT ORBITAL ELEMENTS FOR AMATEUR SATELLITES IN NASA FORMAT
FROM WA5QGD FORT WORTH,TX May 27, 2010
Send Subscribe/unsubscribe to KEPS at http://www.amsat.org/mailman/listinfo/keps
BID: ORB10147.N

DECODE 2-LINE ELSETS WITH THE FOLLOWING KEY:
1 AAAAAU 00  0  0 BBBBB.BBBBBBBB  .CCCCCCCC  00000-0  00000-0 0  DDDZ
2 AAAAA EEE.EEEE FFF.FFFF GGGGGGG HHH.HHHH III.IIII JJ.JJJJJJJJKKKKKZ
KEY: A-CATALOGNUM B-EPOCHTIME C-DECAY D-ELSETNUM E-INCLINATION F-RAAN
G-ECCENTRICITY H-ARGPERIGEE I-MNANOM J-MNMOTION K-ORBITNUM Z-CHECKSUM

TO ALL RADIO AMATEURS BT

AO-07
1 07530U 74089B   10146.57516214 -.00000027  00000-0  10000-3 0 07875
2 07530 101.4006 163.2801 0011922 318.5385 041.4782 12.53578421625746
FO-29
1 24278U 96046B   10146.95416303 -.00000023  00000-0  11885-4 0 03202
2 24278 098.5134 339.0217 0350606 178.7897 181.4174 13.52950609680232
SO-33
1 25509U 98061B   10147.64132659 -.00000000  00000-0 -11331-4 0  7201
2 25509 031.4306 264.7011 0353540 110.3283 253.5688 14.28305200605114
RS-22
1 27939U 03042A   10147.68008167  .00000050  00000-0  18389-4 0  2179
2 27939 097.8958 014.0345 0014602 122.3487 237.9125 14.63419709355955
VO-52
1 28650U 05017B   10147.60451190  .00000344  00000-0  49875-4 0  5122
2 28650 097.6939 201.8397 0026828 346.8452 013.2054 14.81750495273645
SO-67
1 35870U 09049F   10147.90094907  .00000496  00000-0  25449-4 0  7643
2 35870 097.3334 197.5716 0003682 140.2977 220.2856 15.20893794 38373
HO-68
1 36122U 09072B   10147.64996210 -.00000045  00000-0  00000 0 0  3412
2 36122 100.4692 208.2853 0007804 024.8659 335.2832 13.16280845 21512
UO-11
1 14781U 84021B   10147.60186002  .00000166  00000-0  29185-4 0  2504
2 14781 098.0578 199.2794 0008220 310.0902 049.9575 14.79804318408767
AO-16
1 20439U 90005D   10146.80584693  .00000018  00000-0  22191-4 0  9041
2 20439 098.3307 105.5554 0010178 226.3818 133.6524 14.31861982 62322
LO-19
1 20442U 90005G   10146.73713610  .00000005  00000-0  17420-4 0 08167
2 20442 098.2902 111.3778 0011156 222.0914 137.9413 14.32093413062484
AO-27
1 22825U 93061C   10147.78184873  .00000038  00000-0  31927-4 0  5394
2 22825 098.4844 096.2610 0007997 335.9581 024.1230 14.29298155869133
IO-26
1 22826U 93061D   10147.64098370 -.00000000  00000-0  16599-4 0  2762
2 22826 098.4781 096.7327 0008562 331.1546 028.9163 14.29553857869222
GO-32
1 25397U 98043D   10146.72807679 -.00000138  00000-0 -43183-4 0  1942
2 25397 098.3121 155.3606 0001002 022.2983 337.8244 14.23177723616996
NO-44
1 26931U 01043C   10146.86611087 -.00000051  00000-0  12402-4 0 04713
2 26931 067.0520 258.9050 0005633 261.8139 098.2302 14.29597924451702
SO-50
1 27607U 02058C   10146.73718044  .00000109  00000-0  38916-4 0 01840
2 27607 064.5589 061.6686 0034500 087.4105 273.0977 14.71541421399221
CO-55
1 27844U 03031E   10146.54443029  .00000057  00000-0  46546-4 0 08557
2 27844 098.7086 155.8296 0008855 232.7736 127.2639 14.20708496358015
CO-57
1 27848U 03031J   10146.50041911  .00000026  00000-0  32652-4 0 08055
2 27848 098.7128 154.8761 0008763 237.6902 122.3440 14.20500558357967
AO-51
1 28375U 04025K   10147.52158719  .00000028  00000-0  21039-4 0  6858
2 28375 098.0618 142.1965 0083584 159.3015 201.1591 14.40685632310539
GENESAT1
1 29655U 06058C   10147.43874677  .00082105  00000-0  27027-3 0   724
2 29655 040.0172 163.9357 0007899 176.7222 183.3655 15.89355918196682
CP3
1 31129U 07012N   10146.78801620 -.00000052  00000-0 -95699-6 0  5865
2 31129 097.9431 187.5016 0100919 300.7106 058.4169 14.52256444164759
CO-65
1 32785U 08021C   10147.09432964  .00000487  00000-0  68515-4 0  6902
2 32785 097.8984 212.3111 0015007 358.1213 001.9951 14.81656591112363
KKS-1
1 33493U 09002B   10147.85030078  .00000393  00000-0  57666-4 0  5194
2 33493 098.0828 267.1703 0019424 203.2794 156.7539 14.80990181 72479
SOHLA-1
1 33496U 09002E   10146.71208624  .00000078  00000-0  21338-4 0 01154
2 33496 098.0553 256.0663 0005449 273.3957 086.6638 14.69494496071723
NOAA-10
1 16969U 86073A   10147.54463120 -.00000042  00000-0  98522-6 0   780
2 16969 098.6578 176.7045 0011231 272.3869 087.6046 14.27416724232636
NOAA-11
1 19531U 88089A   10147.30877478  .00000023  00000-0  34202-4 0   901
2 19531 098.7691 236.6872 0011047 204.3247 155.7450 14.14926390118185
NOAA-12
1 21263U 91032A   10147.50647509  .00000024  00000-0  29094-4 0  5774
2 21263 098.7647 160.6682 0011535 224.0569 135.9698 14.25634182989451
MET-3/5
1 21655U 91056A   10146.90895265  .00000051  00000-0  10000-3 0 08221
2 21655 082.5568 323.6705 0014634 046.3838 313.8517 13.17025370902874
MET-2/21
1 22782U 93055A   10146.81447325  .00000068  00000-0  47495-4 0  7860
2 22782 082.5463 269.3945 0023905 101.9513 258.4332 13.83645716845129
OKEAN-4
1 23317U 94066A   10147.67258392  .00000237  00000-0  26302-4 0  2426
2 23317 082.5418 013.0104 0020952 313.5844 046.3643 14.82819140843415
NOAA-14
1 23455U 94089A   10147.54752268 -.00000033  00000-0  61117-5 0   697
2 23455 098.8778 228.4327 0008720 298.0431 061.9864 14.13786300794580
NOAA-15
1 25338U 98030A   10147.22731928  .00000080  00000-0  52767-4 0  3890
2 25338 098.6168 134.5289 0011428 132.1503 228.0683 14.24828416625769
RESURS
1 25394U 98043A   10146.70933259 -.00000018  00000-0  10038-4 0  5124
2 25394 098.3054 165.9573 0000747 331.0800 029.0338 14.24201293617291
FENGYUN1
1 25730U 99025A   10146.77667299 -.00000531  00000-0 -28533-3 0   511
2 25730 098.7859 112.2902 0023750 333.3872 026.6075 14.08211275568677
OKEAN-0
1 25860U 99039A   10147.77448488  .00000052  00000-0  15256-4 0    30
2 25860 097.8300 121.1679 0001579 099.9628 260.1758 14.73640995583892
NOAA-16
1 26536U 00055A   10147.18912389 -.00000020  00000-0  14195-4 0  8677
2 26536 099.1702 164.1622 0011075 040.6267 319.5781 14.12558822498860
NOAA-17
1 27453U 02032A   10147.48120472  .00000012  00000-0  23150-4 0  8693
2 27453 098.4324 198.7563 0011462 193.3935 166.6949 14.24160181411756
NOAA-18
1 28654U 05018A   10147.45779732  .00000033  00000-0  42952-4 0  3532
2 28654 098.9484 093.7823 0015179 110.5013 249.7772 14.11359171258517
NOAA-19
1 33591U 09005A   10147.51217895 -.00000114  00000-0 -39260-4 0  5501
2 33591 098.7874 090.0737 0014121 352.3049 007.7881 14.11054839 66994
HUBBLE
1 20580U 90037B   10146.96954202  .00000383  00000-0  16497-4 0  5725
2 20580 028.4698 018.3684 0003133 332.1946 027.8471 15.00976129901562
ISS
1 25544U 98067A   10148.00294017  .00028153  00000-0  18941-3 0  2311
2 25544 051.6468 334.1185 0009160 355.1703 142.5616 15.74882994660292
CO-58
1 28895U 05043F   10146.73444380  .00000042  00000-0  18133-4 0 05946
2 28895 098.0179 031.9193 0017784 356.9810 003.1284 14.59892922243854
FALCON
1 30776U 07006E   10146.43629354  .00000393  00000-0  31158-4 0  8350
2 30776 035.4327 176.3463 0001575 335.2357 024.8284 15.03662380176786
MAST
1 31126U 07012K   10146.60727289 -.00000023  00000-0  56178-5 0  8746
2 31126 097.9398 189.7325 0093391 293.4650 065.6747 14.53587440164927
CAPE1
1 31130U 07012P   10147.80937699  .00000184  00000-0  53372-4 0  8954
2 31130 097.9401 188.3212 0100838 297.6095 061.4863 14.52179707164702
COMPASS
1 32787U 08021E   10145.75104764  .00000547  00000-0  75724-4 0 06827
2 32787 097.8949 210.8144 0015948 003.1517 356.9788 14.81870611112174
AAUSAT2
1 32788U 08021F   10146.63398479  .00000300  00000-0  44451-4 0 06756
2 32788 097.8951 211.8087 0015822 001.8159 358.3081 14.82013019112313
DO-64
1 32789U 08021G   10146.64492487  .00000466  00000-0  65158-4 0 06921
2 32789 097.9022 212.2683 0015502 359.8275 000.2932 14.82145596112315
CO-66
1 32791U 08021J   10145.83725291  .00000123  00000-0  22392-4 0 06750
2 32791 097.8971 210.9182 0016286 001.3429 358.7750 14.81655911112145
RS-30
1 32953U 08025A   10147.68501147  .00000010  00000-0  00000 0 0  7293
2 32953 082.5025 042.4278 0019071 143.3381 216.9010 12.43005202 91192
TACSAT-3
1 35001U 09028A   10147.90119949  .00003432  00000-0  84530-4 0  2969
2 35001 040.4570 335.9521 0021267 217.5423 142.3907 15.41635801 57508
PHARMSAT
1 35002U 09028B   10147.86196137  .00002706  00000-0  66519-4 0  2802
2 35002 040.4713 334.2585 0024581 220.5040 139.3958 15.42177979 57512
HAWKSAT1
1 35003U 09028C   10147.87546959  .00006321  00000-0  13412-3 0  2995
2 35003 040.4635 329.5607 0022602 234.7052 125.1647 15.45105748 57572
CP6
1 35004U 09028D   10146.91397609  .00007291  00000-0  15012-3 0 03037
2 35004 040.4656 334.5927 0021408 230.0729 129.8204 15.45857168057424
AEROCUB3
1 35005U 09028E   10146.90539926  .00021522  00000-0  37184-3 0 03405
2 35005 040.4752 333.0910 0018867 241.8789 118.0123 15.50220603057445
DRAGNSAT
1 35690U 09038B   10076.22711312  .05715194  12509-4  31481-3 0  3162
2 35690 051.6170 315.4586 0004999 310.9891 057.3269 16.42150010 36561
POLLUX
1 35693U 09038E   10087.99866888  .23496735  12787-4  17715-3 0  3529
2 35693 051.6099 254.5746 0006270 294.4866 097.5899 16.52338462 38395
CASTOR
1 35694U 09038F   10147.85887669  .00064519  13095-4  13382-3 0  4124
2 35694 051.6371 308.7625 0001524 147.0596 213.0510 15.99367372 47800
METEOR-M
1 35865U 09049A   10147.86724268  .00000176  00000-0  10000-3 0  3302
2 35865 098.7595 201.8094 0003437 066.6524 293.4996 14.21830301 35836
RS-38
1 35869U 09049E   10147.70019209  .00000177  00000-0  10000-3 0  3380
2 35869 098.7586 201.6742 0005532 066.9585 293.2137 14.21982193 35816
/EX




More information about the Keps mailing list